Location: Coupvray
(48.8929°N, 2.7967°E)
Time: 04:37:11
(UTC+00:00)

SL-16 R/B - Pass Details

Date: 14 July 2020
Orbit: 985 x 1006 km, 99.5° (Epoch: 06 August)

Event Time Altitude Azimuth Distance (km) Brightness Sun altitude
Exits shadow 01:57:01 18° 190° (S) 2,227 3.8 -14.4°
Maximum altitude 02:01:31 51° 260° (W) 1,248 2.8 -14.0°
Drops below altitude 10° 02:07:38 10° 336° (NNW) 2,793 5.4 -13.5°
Sets 02:10:13 0° 341° (NNW) 3,748 6.2 -13.3°
